Погода в Березниках

Россия / Республика Марий Эл     55°57′42″N   48°17′55″E
темп.,
°C
ветер,
м/с
пор.,
м/с
влажн.,
%
обл.,
%
осадки,
мм/ч
давл.,
гПа
погр.,
м
25 мая, ср
ср2500:00+1з118976 0.0 100810
03:00−1сз22935 0.0 100819
06:00+2сз35815 0.0 1009248
09:00+7зсз566783 0.0 10091232
12:00+7зсз5666100 0.1 10101231
15:00+9зсз465375 0.1 10101635
18:00+8з487696 0.3 1010943
21:00+5з499098 0.4 1011601
26 мая, чт
чт2600:00+2з38977 0.0 1012179
03:00+2юз369671 0.0 1013110
06:00+5зюз488667 0.0 1013369
09:00+9юз5764100 0.0 1013975
12:00+10юз5867100 0.8 10121417
15:00+10зюз5979100 1.8 10121298
18:00+8юз278914 0.3 1011610
21:00+5ююв339390 0.3 101038
27 мая, пт
пт2700:00+7юв31091100 0.0 1008210
03:00+7ю41095100 0.1 1007272
06:00+8юв61196100 2.9 1004426
09:00+9ююв81495100 7.6 1001821
12:00+10ююв6119377 0.4 1000630
15:00+10ю61291100 1.5 1000854
18:00+10ююз61194100 1.3 1000756
21:00+10юз4897100 1.6 1002388
28 мая, сб
сб2800:00+10зюз4998100 0.7 1004424
03:00+9зюз5893100 1.2 1006499
06:00+10ююз3691100 0.0 1008389
09:00+15ю797526 0.0 1007963
12:00+18ю913628 0.0 10061397
15:00+14юз71392100 1.9 1007844
18:00+13ююз5119079 1.9 1009743
21:00+11ююз411965 1.9 1011366
29 мая, вс
вс2900:00+9ююз3896100 0.0 1012163
03:00+9ююз379496 0.0 1013130
06:00+11ююз398996 0.0 1015306
09:00+15ююз5979100 0.5 1015713
12:00+12юз4990100 1.9 1017772
15:00+14ююз51085100 2.3 1017858
18:00+14юз598397 0.0 1017728
21:00+9ююз38955 0.0 1018161